Skip Page Navigation
NASA JPL Caltech
NASA Logo - Jet Propulsion Laboratory + View the NASA Portal
+ Center for Near-Earth Object Studies
JPL Home Earth Solar System Stars & Galaxies Technology
JPL Solar System Dynamics
BODIES ORBITS EPHEMERIDES TOOLS PHYSICAL DATA DISCOVERY FAQ SITE MAP
IMPORTANT: The SSD Announcement email list is now available. Major changes are coming in the near future, including possible hostname and/or URL changes. To be notified of such changes, subscribe to this email list.

Please visit this page for more details.


JPL Small-Body Database Browser
Search: [ help ]  
379475 (2010 DB47)
Classification: Main-belt Asteroid          SPK-ID: 2379475
Ephemeris | Orbit Diagram | Orbital Elements | Mission Design | Physical Parameters | Discovery Circumstances ]

[ show orbit diagram ]
Orbital Elements at Epoch 2458600.5 (2019-Apr-27.0) TDB
Reference: JPL 14 (heliocentric ecliptic J2000)
 Element Value Uncertainty (1-sigma)   Units 
e .1004120384721736 8.2912e-08  
a 3.116978910271569 6.2548e-08 au
q 2.803996704016426 2.884e-07 au
i 8.531332049043819 1.2874e-05 deg
node 338.9730700398616 4.2252e-05 deg
peri 68.64267847604151 7.9298e-05 deg
M 355.1061022316695 6.3416e-05 deg
tp 2458627.824461681976
(2019-May-24.32446168)
0.00035417 TDB
period 2010.014649093685
5.50
6.0502e-05
1.656e-07
d
yr
n .17910317228898 5.391e-09 deg/d
Q 3.429961116526711 6.8828e-08 au
  Orbit Determination Parameters
   # obs. used (total)      178  
   data-arc span      5916 days (16.20 yr)  
   first obs. used      2002-11-25  
   last obs. used      2019-02-05  
   planetary ephem.      DE431  
   SB-pert. ephem.      SB431-N16  
   condition code      0  
   norm. resid. RMS      .56737  
   source      ORB  
   producer      Otto Matic  
   solution date      2019-Jul-14 13:22:15  

Additional Information
 Earth MOID = 1.82685 au 
 Jupiter MOID = 1.96638 au 
 T_jup = 3.192 
[ show covariance matrix ]

Ephemeris | Orbit Diagram | Orbital Elements | Mission Design | Physical Parameters | Discovery Circumstances ]

Physical Parameter Table
Parameter Symbol Value Units Sigma Reference Notes
absolute magnitude H 15.9   n/a MPO460488  

379475 (2010 DB47)          Discovered 2010-Feb-17 by Spacewatch at Kitt Peak
Reference: Last Updated: 2013-11-20

Alternate Designations
 2010 DB47 = 2007 RT137 
Ephemeris | Orbit Diagram | Orbital Elements | Mission Design | Physical Parameters | Discovery Circumstances ]
ABOUT SSD CREDITS/AWARDS PRIVACY/COPYRIGHT GLOSSARY LINKS
FirstGov 2019-Dec-16 10:36 UT
(server date/time)  
NASA Home Page
Site Manager:   Ryan S. Park
Webmaster  Alan B. Chamberlin